User: anonymous   Login
Location: Wien
(48.2082°N, 16.3738°E)
Time: 22:58:49
(UTC+02:00)
Language:

MOZHAYETS 4 - Orbit

View from above orbital plane
View from above orbital plane
View from above satellite
View from above satellite

Ground track
Ground track

The orbit data is extracted from the following two-line orbital elements,

1 27939U 03042A   20216.45340041  .00000050  00000-0  17672-4 0  9993
2 27939  98.0968 350.6654 0012530 199.2365 160.8367 14.66875036900902
Epoch (UTC): 03 August 2020 10:52:53
Eccentricity: 0.0012530
inclination: 98.0968°
perigee height: 662 km
apogee height: 680 km
right ascension of ascending node: 350.6654°
argument of perigee: 199.2365°
revolutions per day: 14.66875036
mean anomaly at epoch: 160.8367°
orbit number at epoch: 90090

The dashed part of the orbit path shows where the satellite is in the earth's shadow,  

DLR